User: anonymous   Login
Location: Unspecified
(0.0000°N, 0.0000°E)
Time: 01:42:42
(UTC+00:00)
Language:

ISS - Orbit

View from above orbital plane
View from above orbital plane
View from above satellite
View from above satellite

Ground track
Ground track

The orbit data is extracted from the following two-line orbital elements,

1 25544U 98067A   24280.84565512  .00030508  00000-0  55265-3 0  9994
2 25544  51.6390 122.3272 0009158  43.9351  77.0928 15.49327299475867
Epoch (UTC): 06 October 2024 20:17:44
Eccentricity: 0.0009158
inclination: 51.6390°
perigee height: 412 km
apogee height: 425 km
right ascension of ascending node: 122.3272°
argument of perigee: 43.9351°
revolutions per day: 15.49327299
mean anomaly at epoch: 77.0928°
orbit number at epoch: 47586

The dashed part of the orbit path shows where the satellite is in the earth's shadow,  

DLR